Simultaneous Nadir Overpasses (SNOs) Predictions

Prediction of SNOs between AQUA and NOAA-19 Satellite Orbit:

Table of predicted SNOs for the next 14.0 days since TLE Epoch: 8/18/2018
Index Date (AQUA) Time (AQUA) Lat,Lon (AQUA) SZA (AQUA ) Date (NOAA-19) Time (NOAA-19) Lat,Lon (NOAA-19) SZA (NOAA-19 ) Distance(km) Time Diff (sec)
1 08/18/2018 12:04:11 80.75, -38.76 69.81 08/18/2018 12:03:49 80.74, -38.77 69.81 1.47 22
2 08/18/2018 12:53:37 -80.75, 128.92 110.19 08/18/2018 12:54:44 -80.75, 128.85 110.21 1.21 67
3 08/20/2018 17:37:52 -80.73, 58.06 109.52 08/20/2018 17:37:18 -80.74, 57.89 109.48 3.14 34
4 08/20/2018 18:27:20 80.76,-134.66 70.55 08/20/2018 18:28:22 80.75,-134.62 70.51 1.99 62
5 08/22/2018 23:11:35 80.75, 154.46 71.24 08/22/2018 23:10:55 80.74, 154.61 71.24 2.79 40
6 08/23/2018 00:01:01 -80.74, -37.88 108.76 08/23/2018 00:01:51 -80.75, -37.85 108.78 0.66 50
7 08/25/2018 04:45:16 -80.73,-108.78 108.05 08/25/2018 04:44:25 -80.73,-108.85 108.02 1.27 51
8 08/25/2018 05:34:43 80.73, 58.84 71.96 08/25/2018 05:35:28 80.74, 58.69 71.97 3.04 45
9 08/27/2018 10:18:58 80.72, -12.08 72.68 08/27/2018 10:18:01 80.74, -12.15 72.73 2.20 57
10 08/27/2018 11:08:25 -80.75, 155.24 107.26 08/27/2018 11:08:58 -80.74, 155.38 107.29 2.54 33
11 08/29/2018 15:52:40 -80.74, 84.30 106.52 08/29/2018 15:51:32 -80.73, 84.35 106.50 1.20 68
12 08/29/2018 16:42:07 80.74,-108.07 73.50 08/29/2018 16:42:34 80.74,-108.13 73.50 1.01 27
13 08/31/2018 21:26:25 80.81, 179.95 74.42 08/31/2018 21:25:13 80.65, 178.81 74.45 26.95 72




NCC Satellite Simultaneous Nadir Overpasses (SNOs) Prediction Service
